Stündliche Wetter Aarwangen

Heute, 2 März, Dienstag

Zeit Temperatur Niederschläge Wind Luftdruck Luftfeuchtigkeit
00:00 +4°C° 0 mm 1 m/S 728 mmHg 78%
01:00 +2°C° 0 mm 0 m/S 728 mmHg 75%
02:00 +3°C° 0 mm 1 m/S 728 mmHg 74%
03:00 +3°C° 0 mm 1 m/S 728 mmHg 73%
04:00 +3°C° 0 mm 1 m/S 728 mmHg 71%
05:00 +2°C° 0 mm 1 m/S 728 mmHg 69%
06:00 +2°C° 0 mm 1 m/S 728 mmHg 67%
07:00 +2°C° 0 mm 1 m/S 728 mmHg 64%
08:00 +4°C° 0 mm 1 m/S 729 mmHg 57%
09:00 +6°C° 0 mm 0 m/S 729 mmHg 51%
10:00 +8°C° 0 mm 0 m/S 729 mmHg 44%
11:00 +10°C° 0 mm 0 m/S 729 mmHg 42%
12:00 +13°C° 0 mm 1 m/S 729 mmHg 39%
13:00 +15°C° 0 mm 1 m/S 729 mmHg 37%
14:00 +15°C° 0 mm 1 m/S 729 mmHg 38%
15:00 +14°C° 0 mm 0 m/S 728 mmHg 40%
16:00 +14°C° 0 mm 0 m/S 728 mmHg 41%
17:00 +11°C° 0 mm 0 m/S 728 mmHg 47%
18:00 +9°C° 0 mm 0 m/S 728 mmHg 53%
19:00 +6°C° 0 mm 0 m/S 729 mmHg 60%
20:00 +6°C° 0 mm 0 m/S 729 mmHg 60%
21:00 +6°C° 0 mm 1 m/S 729 mmHg 61%
22:00 +6°C° 0 mm 1 m/S 729 mmHg 62%
23:00 +5°C° 0 mm 1 m/S 729 mmHg 62%

Morgen, 3 März, Mittwoch

Zeit Temperatur Niederschläge Wind Luftdruck Luftfeuchtigkeit
00:00 +5°C° 0 mm 1 m/S 729 mmHg 62%
01:00 +5°C° 0 mm 1 m/S 729 mmHg 62%
02:00 +5°C° 0 mm 1 m/S 729 mmHg 63%
03:00 +4°C° 0 mm 1 m/S 728 mmHg 63%
04:00 +4°C° 0 mm 1 m/S 728 mmHg 64%
05:00 +4°C° 0 mm 1 m/S 728 mmHg 64%
06:00 +4°C° 0 mm 1 m/S 728 mmHg 64%
07:00 +3°C° 0 mm 1 m/S 728 mmHg 64%
08:00 +6°C° 0 mm 1 m/S 728 mmHg 59%
09:00 +8°C° 0 mm 1 m/S 728 mmHg 54%
10:00 +10°C° 0 mm 1 m/S 728 mmHg 49%
11:00 +12°C° 0 mm 1 m/S 728 mmHg 46%
12:00 +14°C° 0 mm 1 m/S 728 mmHg 43%
13:00 +16°C° 0 mm 1 m/S 728 mmHg 40%
14:00 +16°C° 0 mm 1 m/S 728 mmHg 42%
15:00 +15°C° 0 mm 0 m/S 727 mmHg 43%
16:00 +15°C° 0 mm 0 m/S 726 mmHg 45%
17:00 +12°C° 0 mm 0 m/S 726 mmHg 52%
18:00 +10°C° 0 mm 0 m/S 726 mmHg 60%
19:00 +8°C° 0 mm 0 m/S 726 mmHg 68%
20:00 +7°C° 0 mm 0 m/S 726 mmHg 69%
21:00 +7°C° 0 mm 0 m/S 726 mmHg 71%
22:00 +7°C° 0 mm 1 m/S 725 mmHg 72%
23:00 +7°C° 0 mm 1 m/S 725 mmHg 73%

übermorgen, 4 März, Donnerstag

Zeit Temperatur Niederschläge Wind Luftdruck Luftfeuchtigkeit
00:00 +7°C° 0 mm 1 m/S 725 mmHg 74%
01:00 +6°C° 0 mm 1 m/S 724 mmHg 74%
02:00 +6°C° 0 mm 1 m/S 724 mmHg 74%
03:00 +6°C° 0 mm 1 m/S 724 mmHg 74%
04:00 +6°C° 0 mm 1 m/S 723 mmHg 74%
05:00 +6°C° 0 mm 1 m/S 723 mmHg 74%
06:00 +5°C° 0 mm 1 m/S 723 mmHg 74%
07:00 +5°C° 0 mm 1 m/S 723 mmHg 74%
08:00 +7°C° 0 mm 1 m/S 722 mmHg 69%
09:00 +9°C° 0 mm 1 m/S 722 mmHg 64%
10:00 +11°C° 0 mm 1 m/S 722 mmHg 58%
11:00 +12°C° 0 mm 1 m/S 722 mmHg 56%
12:00 +13°C° 0 mm 1 m/S 722 mmHg 53%
13:00 +14°C° 0 mm 2 m/S 721 mmHg 51%
14:00 +13°C° 0.3 mm 2 m/S 721 mmHg 60%
15:00 +12°C° 0.3 mm 2 m/S 720 mmHg 70%
16:00 +9°C° 0.3 mm 2 m/S 719 mmHg 80%
17:00 +9°C° 0.4 mm 2 m/S 719 mmHg 84%
18:00 +8°C° 0.4 mm 2 m/S 719 mmHg 88%
19:00 +8°C° 0.4 mm 1 m/S 719 mmHg 92%
20:00 +8°C° 0.2 mm 1 m/S 719 mmHg 93%
21:00 +7°C° 0.2 mm 1 m/S 719 mmHg 93%
22:00 +7°C° 0.2 mm 1 m/S 719 mmHg 93%
23:00 +7°C° 0.3 mm 1 m/S 719 mmHg 94%

5 März, Freitag

Zeit Temperatur Niederschläge Wind Luftdruck Luftfeuchtigkeit
00:00 +7°C° 0.3 mm 1 m/S 719 mmHg 95%
01:00 +6°C° 0.3 mm 1 m/S 719 mmHg 95%
02:00 +6°C° 0.2 mm 1 m/S 719 mmHg 95%
03:00 +6°C° 0.2 mm 1 m/S 719 mmHg 95%
04:00 +6°C° 0.2 mm 1 m/S 719 mmHg 96%
05:00 +6°C° 0.2 mm 1 m/S 719 mmHg 95%
06:00 +6°C° 0.2 mm 1 m/S 719 mmHg 95%
07:00 +5°C° 0.2 mm 0 m/S 719 mmHg 95%
08:00 +6°C° 0.1 mm 1 m/S 720 mmHg 92%
09:00 +7°C° 0.1 mm 1 m/S 720 mmHg 90%
10:00 +7°C° 0.1 mm 1 m/S 720 mmHg 87%
11:00 +7°C° 0.2 mm 1 m/S 720 mmHg 87%
12:00 +6°C° 0.2 mm 2 m/S 720 mmHg 87%
13:00 +6°C° 0.2 mm 2 m/S 720 mmHg 87%
14:00 +5°C° 0.1 mm 2 m/S 720 mmHg 86%
15:00 +5°C° 0.1 mm 2 m/S 720 mmHg 84%
16:00 +5°C° 0.1 mm 2 m/S 720 mmHg 83%
17:00 +4°C° 0.4 mm 2 m/S 721 mmHg 86%
18:00 +3°C° 0.4 mm 2 m/S 721 mmHg 90%
19:00 +2°C° 0.4 mm 2 m/S 722 mmHg 93%
20:00 +2°C° 0.1 mm 2 m/S 722 mmHg 92%
21:00 +1°C° 0.1 mm 2 m/S 723 mmHg 92%
22:00 +1°C° 0.1 mm 2 m/S 723 mmHg 91%
23:00 +1°C° 0 mm 2 m/S 724 mmHg 91%

6 März, Samstag

Zeit Temperatur Niederschläge Wind Luftdruck Luftfeuchtigkeit
00:00 -1°C° 0 mm 3 m/S 724 mmHg 92%
01:00 -1°C° 0 mm 3 m/S 724 mmHg 92%
02:00 -2°C° 0 mm 3 m/S 724 mmHg 92%
03:00 -2°C° 0 mm 3 m/S 724 mmHg 92%
04:00 -3°C° 0 mm 2 m/S 724 mmHg 93%
05:00 -4°C° 0 mm 3 m/S 724 mmHg 92%
06:00 -4°C° 0 mm 3 m/S 724 mmHg 91%
07:00 -4°C° 0 mm 3 m/S 725 mmHg 90%
08:00 -2°C° 0 mm 3 m/S 725 mmHg 86%
09:00 -1°C° 0 mm 3 m/S 725 mmHg 83%
10:00 -1°C° 0 mm 4 m/S 725 mmHg 80%
11:00 0°C° 0 mm 4 m/S 725 mmHg 73%
12:00 +1°C° 0 mm 4 m/S 725 mmHg 65%
13:00 +4°C° 0 mm 4 m/S 725 mmHg 58%
14:00 +4°C° 0 mm 4 m/S 725 mmHg 55%
15:00 +4°C° 0 mm 4 m/S 725 mmHg 53%
16:00 +5°C° 0 mm 4 m/S 725 mmHg 50%
17:00 +3°C° 0 mm 3 m/S 725 mmHg 55%
18:00 +1°C° 0 mm 3 m/S 725 mmHg 59%
19:00 +1°C° 0 mm 2 m/S 725 mmHg 64%
20:00 -1°C° 0 mm 2 m/S 726 mmHg 65%
21:00 -2°C° 0 mm 2 m/S 726 mmHg 66%
22:00 -2°C° 0 mm 2 m/S 726 mmHg 67%
23:00 -1°C° 0 mm 1 m/S 726 mmHg 68%

7 März, Sonntag

Zeit Temperatur Niederschläge Wind Luftdruck Luftfeuchtigkeit
00:00 -1°C° 0 mm 1 m/S 726 mmHg 69%
01:00 -1°C° 0 mm 1 m/S 726 mmHg 70%
02:00 -1°C° 0 mm 1 m/S 726 mmHg 71%
03:00 -2°C° 0 mm 1 m/S 725 mmHg 71%
04:00 -2°C° 0 mm 1 m/S 725 mmHg 71%
05:00 -2°C° 0 mm 1 m/S 725 mmHg 71%
06:00 -3°C° 0 mm 0 m/S 725 mmHg 71%
07:00 -3°C° 0 mm 0 m/S 725 mmHg 71%
08:00 -1°C° 0 mm 0 m/S 725 mmHg 65%
09:00 +2°C° 0 mm 1 m/S 725 mmHg 58%
10:00 +4°C° 0 mm 1 m/S 725 mmHg 52%
11:00 +6°C° 0 mm 1 m/S 725 mmHg 50%
12:00 +8°C° 0 mm 1 m/S 724 mmHg 48%
13:00 +9°C° 0 mm 1 m/S 724 mmHg 47%
14:00 +9°C° 0 mm 1 m/S 724 mmHg 48%
15:00 +9°C° 0 mm 1 m/S 723 mmHg 49%
16:00 +9°C° 0 mm 1 m/S 723 mmHg 50%
17:00 +6°C° 0 mm 1 m/S 722 mmHg 58%
18:00 +4°C° 0 mm 1 m/S 722 mmHg 67%
19:00 +2°C° 0 mm 1 m/S 722 mmHg 75%
20:00 +2°C° 0 mm 1 m/S 722 mmHg 76%
21:00 +1°C° 0 mm 1 m/S 722 mmHg 77%
22:00 0°C° 0 mm 0 m/S 722 mmHg 78%
23:00 -1°C° 0 mm 0 m/S 722 mmHg 79%
Mehr zeigen

Wir brauchen deine Erlaubnis

Meteoprog und unser Service Anbieter werden persönliche Daten aufbewahren, so wie Cookies, Geräte Bezeichnung oder ähnliche Technologien von deinem Gerät und Prozess, so wie Persönliche Daten Inhalte und Werbungen, genauso wie social Media und den Verkehr zu analysieren.

  • Aufbewahrung und/oder Zugang zu deiner Geräte Informationen.

    Cookies, Geräte Bezeichnung oder andere Informationen, können aufbewahrt oder Zugang zu deinem Gerät erhalten, für den Grund, der oben angegeben wird.

  • Personalisierte Werbung und Inhalte, Messungen, Einblick in das Publikum und Produkt Entwicklung.

    Werbungen und Inhalte können personalisiert werden, basierend auf ein Profil. Mehr Daten können besser personalisierte Werbungen und Inhalte hinzufügen. Werbung und Inhalte können gezeigt und gemessen werden. Einblicke über das Publikum, welche die Werbung gesehen haben und den Inhalt, können abgeleitet werden. So wie Daten können genutzt werden, um es zu verbessern oder die Benutzer Erfahrung zu verbessern das System und die Software.

Wenn du “Ich stimme zu” klickst, erlaubst du uns, die Cookies zu benutzen die Geräte Bezeichnung, den Web oder ähnliche Technologien zu benutzen. Deine Settings, können in deinem Gerät bei deinem Browser geändert werden.

Für den bestimmten Zweck, berechtigten Interessen beruhen darauf, mehr als auf den Inhalt. Du kannst mehr darüber in unseren Privaten und Cookie Politik lesen.